Weather History for Alamosa, CO

Change the Weather History Date:

Tuesday, March 13, 2012

  Actual Average Record
Temperature  
Mean Temperature 43 °F 33 °F  
Max Temperature 64 °F 49 °F 70 °F (2007)
Min Temperature 21 °F 16 °F -2 °F (1950)
Degree Days  
Heating Degree Days 22 32  
Month to date heating degree days 425 444  
Since 1 July heating degree days 6529 6773  
Cooling Degree Days 0 0  
Month to date cooling degree days 0 0  
Year to date cooling degree days 0 0  
Moisture  
Dew Point 3 °F    
Average Humidity 32    
Maximum Humidity 59    
Minimum Humidity 5    
Precipitation  
Precipitation 0.00 in 0.02 in 0.24 in (1982)
Month to date precipitation 0.06 0.19  
Year to date precipitation 0.40 0.71  
Snow  
Snow 0.00 in 0.10 in 3.80 in (1973)
Month to date snowfall 0.5 1.9  
Since 1 July snowfall 17.3 20.0  
Snow Depth 0.00 in    
Sea Level Pressure  
Sea Level Pressure 30.02 in    
Wind  
Wind Speed 12 mph (SSW)    
Max Wind Speed 28 mph    
Max Gust Speed 35 mph    
Visibility 10 miles    
Events      
T = Trace of Precipitation, MM = Missing Value Source: NWS Daily Summary

Daily Weather History Graph

Daily Weather History Graph

Search for Another Location

Airport:

Trip Planner

Search our weather history database for the weather conditions in past years. The results will help you decide how hot, cold, wet, or windy it might be!

Date:

Astronomy

Mar. 13, 2012 Rise Set
Actual Time 7:16 AM MDT 7:09 PM MDT
Civil Twilight 6:50 AM MDT 7:35 PM MDT
Nautical Twilight 6:20 AM MDT 8:05 PM MDT
Astronomical Twilight 5:49 AM MDT 8:36 PM MDT
Moon 12:36 AM MDT (3/13) 10:40 AM MDT (3/13)
Length of Visible Light 12h 44m
Length of Day
11h 52m
Waning Gibbous, 65% of the Moon is Illuminated
Mar 13
Waning Gibbous
Mar 14
Last Quarter
Mar 22
New
Mar 30
First Quarter
Apr 6
Full

Hourly Weather History & Observations

Time (MDT) Temp. Windchill Dew Point Humidity Pressure Visibility Wind Dir Wind Speed Gust Speed Precip Events Conditions
12:52 AM 30.0 °F 23.2 °F 8.1 °F 40% 30.06 in 10.0 mi SSW 6.9 mph - N/A   Clear
1:52 AM 32.0 °F - 10.0 °F 40% 30.03 in 10.0 mi Calm Calm - N/A   Clear
2:52 AM 32.0 °F 22.1 °F 10.9 °F 42% 30.01 in 10.0 mi South 13.8 mph - N/A   Clear
3:52 AM 25.0 °F 16.3 °F 8.1 °F 49% 30.03 in 10.0 mi South 8.1 mph - N/A   Clear
4:52 AM 21.9 °F 12.5 °F 9.0 °F 58% 30.05 in 10.0 mi SE 8.1 mph - N/A   Clear
5:52 AM 23.0 °F 13.1 °F 10.0 °F 58% 30.06 in 10.0 mi SE 9.2 mph - N/A   Clear
6:52 AM 24.1 °F 13.1 °F 10.0 °F 55% 30.07 in 10.0 mi SE 11.5 mph - N/A   Clear
7:52 AM 27.0 °F 23.0 °F 10.9 °F 51% 30.09 in 10.0 mi SSW 3.5 mph - N/A   Clear
8:52 AM 33.1 °F 30.0 °F 12.0 °F 42% 30.09 in 10.0 mi West 3.5 mph - N/A   Clear
9:52 AM 43.0 °F - 12.0 °F 28% 30.05 in 10.0 mi Calm Calm - N/A   Clear
10:52 AM 53.1 °F - 7.0 °F 16% 30.00 in 10.0 mi South 12.7 mph - N/A   Clear
11:52 AM 57.9 °F - 1.9 °F 10% 29.99 in 10.0 mi SW 9.2 mph 17.3 mph N/A   Clear
12:52 PM 61.0 °F - -6.0 °F 7% 29.95 in 10.0 mi SW 21.9 mph 28.8 mph N/A   Clear
1:52 PM 62.1 °F - -11.0 °F 5% 29.91 in 10.0 mi SW 25.3 mph 28.8 mph N/A   Clear
2:52 PM 62.1 °F - -9.9 °F 5% 29.89 in 10.0 mi SW 25.3 mph 31.1 mph N/A   Clear
3:52 PM 61.0 °F - -2.0 °F 8% 29.94 in 10.0 mi SW 24.2 mph 33.4 mph N/A   Clear
4:52 PM 60.1 °F - -4.0 °F 7% 29.97 in 10.0 mi SSW 19.6 mph 25.3 mph N/A   Clear
5:52 PM 57.9 °F - -2.0 °F 9% 29.97 in 10.0 mi SSW 16.1 mph 24.2 mph N/A   Clear
6:52 PM 53.1 °F - -4.0 °F 10% 30.00 in 10.0 mi WSW 17.3 mph - N/A   Clear
7:52 PM 41.0 °F 37.1 °F -2.0 °F 16% 30.07 in 10.0 mi SW 5.8 mph - N/A   Clear
8:52 PM 39.2 °F 34.2 °F -0.4 °F 19% 30.10 in 10.0 mi WNW 6.9 mph - N/A   Clear
9:52 PM 36.0 °F 33.3 °F 1.0 °F 23% 30.04 in 10.0 mi South 3.5 mph - N/A   Clear
10:52 PM 33.1 °F 24.9 °F 3.9 °F 29% 30.01 in 10.0 mi SW 10.4 mph - N/A   Clear
11:52 PM 30.0 °F 20.5 °F 8.1 °F 40% 30.00 in 10.0 mi SW 11.5 mph - N/A   Clear